EST,Max TemperatureF,Mean TemperatureF,Min TemperatureF,Max Dew PointF,MeanDew PointF,Min DewpointF,Max Humidity, Mean Humidity, Min Humidity, Max Sea Level PressureIn, Mean Sea Level PressureIn, Min Sea Level PressureIn, Max VisibilityMiles, Mean VisibilityMiles, Min VisibilityMiles, Max Wind SpeedMPH, Mean Wind SpeedMPH, Max Gust SpeedMPH,PrecipitationIn, CloudCover, Events, WindDirDegrees
2013-12-1,41,33,25,28,25,19,88,73,58,30.36,30.18,30.04,10,10,10,14,2,18,0.00,8,,170
2013-12-2,39,33,26,31,29,24,92,81,70,30.03,29.97,29.92,10,10,8,6,1,8,T,7,Fog-Rain-Snow,168
2013-12-3,43,34,25,33,27,23,92,76,59,30.03,29.96,29.92,10,8,3,16,3,20,0.00,6,Fog,304
2013-12-4,43,32,21,28,23,18,92,69,46,30.17,30.13,30.04,10,10,7,6,1,7,0.00,4,,23
2013-12-5,53,40,27,50,42,23,89,84,78,30.15,30.00,29.89,10,6,2,23,10,31,0.03,8,Rain,174
2013-12-6,52,42,32,45,34,26,92,78,64,30.19,30.07,29.92,10,7,1,18,9,25,0.35,8,Rain-Snow,306
2013-12-7,38,33,28,30,24,17,92,74,56,30.51,30.31,30.17,10,8,1,21,9,28,0.01,7,Snow,295
2013-12-8,31,27,23,20,18,16,81,67,53,30.61,30.54,30.45,10,10,10,13,3,16,T,7,Snow,276
2013-12-9,36,31,26,32,26,19,96,80,63,30.42,30.13,29.92,10,8,2,16,7,21,0.03,8,Rain-Snow,170
2013-12-10,35,27,19,30,23,12,92,74,56,30.03,29.93,29.86,10,6,0,18,7,24,0.04,7,Fog-Snow,251
2013-12-11,31,25,19,21,14,6,81,64,46,30.22,30.16,30.05,10,8,1,23,11,30,0.03,5,Snow,265
2013-12-12,23,18,12,18,7,-3,67,53,39,30.36,30.23,30.05,10,8,0,14,7,18,0.01,6,Snow,274
2013-12-13,27,20,13,21,11,1,81,66,50,30.43,30.13,29.99,10,8,0,22,11,28,0.03,7,Snow,294
2013-12-14,13,10,7,9,2,-4,83,70,57,30.61,30.41,30.07,10,4,0,13,7,16,0.57,8,Fog-Snow,5
2013-12-15,30,21,12,22,17,9,88,76,63,30.03,29.73,29.56,10,4,0,21,5,29,0.67,8,Fog-Snow,309
2013-12-16,26,14,1,21,8,-2,88,67,46,30.25,30.04,29.76,10,10,3,15,8,20,T,2,Snow,283
2013-12-17,13,4,-5,7,1,-8,95,86,76,30.26,30.12,30.02,10,5,0,6,1,7,0.23,6,Fog-Snow,359
2013-12-18,28,18,7,19,13,5,92,78,63,30.09,30.03,29.99,10,10,9,10,2,12,T,7,Snow,177
2013-12-19,37,31,25,24,21,18,81,69,56,30.10,30.05,29.98,10,10,10,17,6,22,0.00,7,,174
2013-12-20,44,38,32,32,28,24,76,67,58,30.09,29.98,29.91,10,10,8,14,7,21,0.06,8,Rain,175
2013-12-21,48,44,39,43,36,29,92,73,53,29.93,29.87,29.83,10,7,0,17,7,23,0.16,8,Fog-Rain,173
2013-12-22,54,43,31,50,35,30,100,90,80,29.95,29.79,29.65,10,3,0,20,5,23,0.02,8,Fog-Rain,353
2013-12-23,47,40,33,40,35,24,93,79,64,30.20,30.05,29.95,10,6,0,23,6,31,0.23,8,Fog-Rain,327
2013-12-24,34,26,18,22,15,6,69,61,53,30.35,30.23,30.14,10,10,10,25,11,36,T,5,Snow,297
2013-12-25,23,16,9,9,2,-1,69,56,43,30.57,30.49,30.38,10,10,10,23,6,28,T,4,,334
2013-12-26,30,24,18,25,17,7,91,69,46,30.38,30.23,30.11,10,9,2,20,9,26,T,6,Snow,181
2013-12-27,34,27,20,22,18,15,81,66,51,30.30,30.27,30.23,10,10,10,15,4,22,T,6,Snow,225
2013-12-28,46,35,23,27,23,20,88,69,49,30.20,30.10,30.04,10,10,10,17,7,23,0.00,3,,172
2013-12-29,42,33,24,34,29,22,96,75,53,30.03,29.77,29.59,10,6,1,14,4,20,0.89,8,Fog-Rain-Snow,324
2013-12-30,37,25,12,32,17,3,96,73,49,30.24,29.98,29.65,10,10,9,29,12,40,T,6,Snow,291
2013-12-31,24,17,9,18,9,1,77,63,49,30.23,30.13,30.03,10,7,0,24,6,32,0.02,6,Snow,228